Location: Oregon Trail
(41.1872°N, 102.0741°W)
Time: 16:59:05
(UTC+00:00)

Cosmos 1707 Rocket - Pass Details

Date: 19 November 2019
Orbit: 606 x 631 km, 82.5° (Epoch: 05 December)

Event Time Altitude Azimuth Distance (km) Brightness Sun altitude
Rises 13:07:18 0° 355° (N) 2,931 6.8 -6.6°
Reaches altitude 10° 13:09:34 10° 358° (N) 2,019 6.0 -6.2°
Maximum altitude 13:14:01 64° 81° (E) 701 4.2 -5.5°
Drops below altitude 10° 13:18:25 10° 163° (SSE) 2,001 6.8 -4.7°
Sets 13:20:40 0° 166° (SSE) 2,901 7.6 -4.3°
